Flag for Germany Weather past 2 weeks in Bremerhaven, Bremen, Germany

Now
48 °F

Partly sunny.


Feels Like: 42 °F
Forecast: 41 / 51 °F
Wind: 15 mph from Southwest

Location: Nordholz


UV Index: 3 (Moderate)

Visibility: N/A


Pressure: 30.15 "Hg

Humidity: 58%

Dew point: 34 °F

Location of BremerhavenLocation

Historic Weather in Bremerhaven

°F

Bremerhaven temperature yesterday

Maximum temperature yesterday: 54 °F (at 2:20 PM)
Minimum temperature yesterday: 32 °F (at 6:20 AM)
Average temperature yesterday: 45 °F

Past Weeks' High & Low Weather Summary

 TemperatureHumidityPressure
High66 °F (Apr 7, 5:20 PM)100% (Apr 3, 12:20 AM)30.48 "Hg (Apr 3, 12:20 AM)
Low32 °F (Apr 16, 6:20 AM)41% (Apr 16, 2:20 PM)29.62 "Hg (Apr 8, 6:20 AM)
Average48 °F84%29.98 "Hg
* Reported Apr 2 9:20 AM — Apr 17 9:20 AM, Bremerhaven, Weather by CustomWeather, © 2014

Note: Actual official high and low records may vary slightly from our data, if they occured in-between our weather recording intervals... More about our weather records

Advertising

Historic Weather Conditions — Data for Previous 24 hours

 ConditionsComfort  
Time TempWeatherWind HumidityBarometerVisibility
9:20 AM
Apr 17
48 °FPartly sunny.15 mph58%30.15 "HgN/A
8:20 AM46 °FPartly sunny.16 mph62%30.18 "HgN/A
7:20 AM45 °FPartly cloudy.12 mph66%30.18 "HgN/A
6:20 AM43 °FPartly cloudy.9 mph66%30.21 "HgN/A
5:20 AM45 °FPassing clouds.8 mph61%30.21 "HgN/A
4:20 AM45 °FPassing clouds.8 mph61%30.24 "HgN/A
3:20 AM46 °FPassing clouds.9 mph57%30.27 "HgN/A
2:20 AM45 °FPassing clouds.6 mph61%30.30 "HgN/A
1:20 AM45 °FPassing clouds.8 mph66%30.33 "HgN/A
12:20 AM45 °FPassing clouds.7 mph66%30.33 "HgN/A
11:20 PM
Apr 16
45 °FPassing clouds.6 mph61%30.36 "HgN/A
10:20 PM46 °FPassing clouds.7 mph57%30.36 "HgN/A
9:20 PM46 °FBroken clouds.5 mph62%30.36 "HgN/A
8:20 PM48 °FPartly sunny.5 mph58%30.36 "HgN/A
7:20 PM52 °FPartly sunny.6 mph47%30.36 "HgN/A
6:20 PM52 °FPartly sunny.8 mph44%30.39 "HgN/A
5:20 PM52 °FPartly sunny.7 mph44%30.42 "HgN/A
4:20 PM54 °FPartly sunny.5 mph41%30.42 "HgN/A
3:20 PM54 °FPartly sunny.7 mph41%30.45 "HgN/A
2:20 PM54 °FPartly sunny.6 mph41%30.45 "HgN/A
1:20 PM52 °FPartly sunny.8 mph47%30.45 "HgN/A
12:20 PM52 °FPartly sunny.5 mph44%30.45 "HgN/A
11:20 AM50 °FScattered clouds.2 mph47%30.45 "HgN/A
10:20 AM48 °FPassing clouds.2 mph54%30.48 "HgN/A
Weather by CustomWeather, © 2014

See weather overview